Location: Namasale
(1.5000°N, 32.6167°E)
Time: 07:37:57
(UTC+00:00)

SR - Pass Details

Date: 19 April 2021
Orbit: 573 x 882 km, 66.7° (Epoch: 16 May)

Event Time Altitude Azimuth Distance (km) Brightness Sun altitude
Rises 16:15:59 0° 325° (NW) 3,239 ? -6.4°
Reaches altitude 10° 16:18:38 10° 317° (NW) 2,261 ? -7.1°
Maximum altitude 16:23:18 35° 252° (WSW) 1,125 ? -8.2°
Drops below altitude 10° 16:27:37 10° 186° (S) 2,083 ? -9.3°
Sets 16:29:59 0° 177° (S) 2,949 ? -9.8°
